Regional Weather Roundup
Issued by NWS

Home | Current Version | Previous Version | Graphics & Text | Print | Product List | Glossary Off
Versions: 1 2 3 4 5 6 7 8 9 10 11 12 13 14 15 16 17 18 19 20 21 22 23 24 25 26 27 28 29 30 31 32 33 34 35 36 37 38 39 40 41 42 43 44 45 46 47 48 49 50

000
ASUS43 KTOP 250308
RWRKS

WEATHER ROUNDUP FOR KANSAS
NATIONAL WEATHER SERVICE GOODLAND KS
1000 PM CDT FRI OCT 24 2014

NOTE:  "FAIR" INDICATES FEW OR NO CLOUDS BELOW 12,000 FEET WITH NO
SIGNIFICANT WEATHER AND/OR OBSTRUCTIONS TO VISIBILITY.

KSZ001>006-013>018-027>032-041>047-250400-
NORTHWEST KANSAS

CITY           SKY/WX    TMP DP  RH WIND       PRES   REMARKS
GOODLAND       CLEAR     57  33  40 S8        30.11R
HAYS           CLEAR     63  48  59 SW6       30.02R
HILL CITY      CLEAR     56  45  66 W3        30.03R
RUSSELL        CLEAR     65  55  70 S10       30.00R
$$

KSZ061>065-074>080-084>089-250400-
SOUTHWEST KANSAS

CITY           SKY/WX    TMP DP  RH WIND       PRES   REMARKS
DODGE CITY     CLEAR     68  53  58 S10       30.07R
ELKHART          N/A     72  37  28 SW9         N/A
GARDEN CITY    CLEAR     63  44  50 SE7       30.07R
GREAT BEND     CLEAR     63  54  72 S6        30.03R
LIBERAL        CLEAR     61  45  55 S9        30.09S
PRATT          CLEAR     63  59  88 S6        30.06R
$$

KSZ066>073-081>083-090>101-250400-
SOUTHEAST KANSAS

CITY           SKY/WX    TMP DP  RH WIND       PRES   REMARKS
CHANUTE        CLEAR     64  61  90 S9        30.02R
COFFEYVILLE    CLEAR     65  60  84 S7        30.03R
HUTCHINSON     CLEAR     67  60  78 S6        30.02R
MEDICINE LODGE   N/A     69  62  78 SE5       30.03R
NEWTON         CLEAR     68  57  68 SW9       30.04R
PARSONS        CLEAR     65  61  87 S7        30.04R
WICHITA INTL   CLEAR     64  58  80 SW7       30.02R
WICHITA JABRA  CLEAR     71  62  73 SW12      30.01S
WICHITA MCCONL CLEAR     66  66 100 S9        30.03R
WINFIELD       CLEAR     65  62  90 S6        30.04R
$$

KSZ007>012-019>026-033>040-048>060-102>105-250400-
NORTHEAST KANSAS

CITY           SKY/WX    TMP DP  RH WIND       PRES   REMARKS
CONCORDIA      CLEAR     60  53  77 SE6       29.99R
EMPORIA        CLEAR     62  61  96 S9        29.99S
LAWRENCE       CLEAR     61  58  90 CALM      29.98R
MANHATTAN      CLEAR     67  62  84 W6        29.97R
MARYSVILLE     CLEAR     63  61  94 CALM      29.99R
OLATHE IND     CLEAR     62  60  93 S5        30.00R
OLATHE EXE     CLEAR     64  61  90 S6        29.99R
SALINA         CLEAR     66  59  78 S10       29.99R
TOPEKA BILLARD CLEAR     63  60  90 CALM      29.97R
TOPEKA FORBES  CLEAR     65  60  84 S8        29.97R
$$



USA.gov is the U.S. government's official web portal to all federal, state and local government web resources and services.